<?xml version="1.0"?>
<gpx xmlns="http://www.topografix.com/GPX/1/1" xmlns:xsi="http://www.w3.org/2001/XMLSchema-instance" version="1.1" creator="GPX RubyGem 1.0.0 -- http://dougfales.github.io/gpx/" xsi:schemaLocation="http://www.topografix.com/GPX/1/1 http://www.topografix.com/GPX/1/1/gpx.xsd">
  <metadata>
    <name/>
    <time>2026-05-08T04:07:56+00:00</time>
    <bound minlat="90.0" minlon="180.0" maxlat="-90.0" maxlon="-180.0"/>
  </metadata>
  <trk>
    <name/>
    <trkseg>
      <trkpt lat="46.021105" lon="7.481761">
        <time>1970-01-01T00:00:00+00:00</time>
        <ele>1975.0</ele>
      </trkpt>
      <trkpt lat="46.021391" lon="7.481663">
        <time>1970-01-01T00:00:00+00:00</time>
        <ele>1975.0</ele>
      </trkpt>
      <trkpt lat="46.02107" lon="7.481546">
        <time>1970-01-01T00:00:00+00:00</time>
        <ele>1979.0</ele>
      </trkpt>
      <trkpt lat="46.020934" lon="7.481404">
        <time>1970-01-01T00:00:00+00:00</time>
        <ele>1983.0</ele>
      </trkpt>
      <trkpt lat="46.02099" lon="7.48116">
        <time>1970-01-01T00:00:00+00:00</time>
        <ele>1985.0</ele>
      </trkpt>
      <trkpt lat="46.020281" lon="7.479391">
        <time>1970-01-01T00:00:00+00:00</time>
        <ele>2028.0</ele>
      </trkpt>
      <trkpt lat="46.020214" lon="7.478718">
        <time>1970-01-01T00:00:00+00:00</time>
        <ele>2044.0</ele>
      </trkpt>
      <trkpt lat="46.020295" lon="7.478304">
        <time>1970-01-01T00:00:00+00:00</time>
        <ele>2055.0</ele>
      </trkpt>
      <trkpt lat="46.02008" lon="7.478091">
        <time>1970-01-01T00:00:00+00:00</time>
        <ele>2064.0</ele>
      </trkpt>
      <trkpt lat="46.020209" lon="7.477685">
        <time>1970-01-01T00:00:00+00:00</time>
        <ele>2074.0</ele>
      </trkpt>
      <trkpt lat="46.019984" lon="7.477315">
        <time>1970-01-01T00:00:00+00:00</time>
        <ele>2081.0</ele>
      </trkpt>
      <trkpt lat="46.020096" lon="7.476975">
        <time>1970-01-01T00:00:00+00:00</time>
        <ele>2090.0</ele>
      </trkpt>
      <trkpt lat="46.020104" lon="7.476548">
        <time>1970-01-01T00:00:00+00:00</time>
        <ele>2099.0</ele>
      </trkpt>
      <trkpt lat="46.019991" lon="7.474866">
        <time>1970-01-01T00:00:00+00:00</time>
        <ele>2137.0</ele>
      </trkpt>
      <trkpt lat="46.019863" lon="7.474384">
        <time>1970-01-01T00:00:00+00:00</time>
        <ele>2149.0</ele>
      </trkpt>
      <trkpt lat="46.019659" lon="7.474083">
        <time>1970-01-01T00:00:00+00:00</time>
        <ele>2156.0</ele>
      </trkpt>
      <trkpt lat="46.019501" lon="7.473578">
        <time>1970-01-01T00:00:00+00:00</time>
        <ele>2170.0</ele>
      </trkpt>
      <trkpt lat="46.019316" lon="7.473205">
        <time>1970-01-01T00:00:00+00:00</time>
        <ele>2177.0</ele>
      </trkpt>
      <trkpt lat="46.019231" lon="7.473178">
        <time>1970-01-01T00:00:00+00:00</time>
        <ele>2176.0</ele>
      </trkpt>
      <trkpt lat="46.019168" lon="7.472995">
        <time>1970-01-01T00:00:00+00:00</time>
        <ele>2179.0</ele>
      </trkpt>
      <trkpt lat="46.018847" lon="7.472596">
        <time>1970-01-01T00:00:00+00:00</time>
        <ele>2178.0</ele>
      </trkpt>
      <trkpt lat="46.018495" lon="7.471999">
        <time>1970-01-01T00:00:00+00:00</time>
        <ele>2190.0</ele>
      </trkpt>
      <trkpt lat="46.018058" lon="7.471909">
        <time>1970-01-01T00:00:00+00:00</time>
        <ele>2197.0</ele>
      </trkpt>
      <trkpt lat="46.017818" lon="7.471493">
        <time>1970-01-01T00:00:00+00:00</time>
        <ele>2213.0</ele>
      </trkpt>
      <trkpt lat="46.017674" lon="7.471663">
        <time>1970-01-01T00:00:00+00:00</time>
        <ele>2215.0</ele>
      </trkpt>
      <trkpt lat="46.01758" lon="7.471563">
        <time>1970-01-01T00:00:00+00:00</time>
        <ele>2218.0</ele>
      </trkpt>
      <trkpt lat="46.017068" lon="7.470069">
        <time>1970-01-01T00:00:00+00:00</time>
        <ele>2253.0</ele>
      </trkpt>
      <trkpt lat="46.016385" lon="7.470161">
        <time>1970-01-01T00:00:00+00:00</time>
        <ele>2265.0</ele>
      </trkpt>
      <trkpt lat="46.01626" lon="7.470304">
        <time>1970-01-01T00:00:00+00:00</time>
        <ele>2269.0</ele>
      </trkpt>
      <trkpt lat="46.016216" lon="7.470736">
        <time>1970-01-01T00:00:00+00:00</time>
        <ele>2273.0</ele>
      </trkpt>
      <trkpt lat="46.016408" lon="7.471519">
        <time>1970-01-01T00:00:00+00:00</time>
        <ele>2272.0</ele>
      </trkpt>
      <trkpt lat="46.016468" lon="7.472042">
        <time>1970-01-01T00:00:00+00:00</time>
        <ele>2277.0</ele>
      </trkpt>
      <trkpt lat="46.015837" lon="7.471393">
        <time>1970-01-01T00:00:00+00:00</time>
        <ele>2302.0</ele>
      </trkpt>
      <trkpt lat="46.014847" lon="7.470102">
        <time>1970-01-01T00:00:00+00:00</time>
        <ele>2351.0</ele>
      </trkpt>
      <trkpt lat="46.014539" lon="7.470422">
        <time>1970-01-01T00:00:00+00:00</time>
        <ele>2364.0</ele>
      </trkpt>
      <trkpt lat="46.014239" lon="7.470423">
        <time>1970-01-01T00:00:00+00:00</time>
        <ele>2378.0</ele>
      </trkpt>
      <trkpt lat="46.013303" lon="7.470036">
        <time>1970-01-01T00:00:00+00:00</time>
        <ele>2432.0</ele>
      </trkpt>
      <trkpt lat="46.012398" lon="7.470042">
        <time>1970-01-01T00:00:00+00:00</time>
        <ele>2477.0</ele>
      </trkpt>
      <trkpt lat="46.012237" lon="7.469652">
        <time>1970-01-01T00:00:00+00:00</time>
        <ele>2489.0</ele>
      </trkpt>
      <trkpt lat="46.011776" lon="7.469887">
        <time>1970-01-01T00:00:00+00:00</time>
        <ele>2500.0</ele>
      </trkpt>
      <trkpt lat="46.011239" lon="7.469837">
        <time>1970-01-01T00:00:00+00:00</time>
        <ele>2513.0</ele>
      </trkpt>
      <trkpt lat="46.010853" lon="7.46951">
        <time>1970-01-01T00:00:00+00:00</time>
        <ele>2523.0</ele>
      </trkpt>
      <trkpt lat="46.010226" lon="7.469126">
        <time>1970-01-01T00:00:00+00:00</time>
        <ele>2538.0</ele>
      </trkpt>
      <trkpt lat="46.008986" lon="7.467872">
        <time>1970-01-01T00:00:00+00:00</time>
        <ele>2585.0</ele>
      </trkpt>
      <trkpt lat="46.008937" lon="7.467739">
        <time>1970-01-01T00:00:00+00:00</time>
        <ele>2589.0</ele>
      </trkpt>
      <trkpt lat="46.009059" lon="7.467522">
        <time>1970-01-01T00:00:00+00:00</time>
        <ele>2594.0</ele>
      </trkpt>
      <trkpt lat="46.009057" lon="7.467401">
        <time>1970-01-01T00:00:00+00:00</time>
        <ele>2598.0</ele>
      </trkpt>
      <trkpt lat="46.008793" lon="7.467157">
        <time>1970-01-01T00:00:00+00:00</time>
        <ele>2610.0</ele>
      </trkpt>
      <trkpt lat="46.008811" lon="7.467038">
        <time>1970-01-01T00:00:00+00:00</time>
        <ele>2617.0</ele>
      </trkpt>
      <trkpt lat="46.008747" lon="7.466986">
        <time>1970-01-01T00:00:00+00:00</time>
        <ele>2622.0</ele>
      </trkpt>
      <trkpt lat="46.008393" lon="7.467022">
        <time>1970-01-01T00:00:00+00:00</time>
        <ele>2626.0</ele>
      </trkpt>
      <trkpt lat="46.00831" lon="7.466943">
        <time>1970-01-01T00:00:00+00:00</time>
        <ele>2631.0</ele>
      </trkpt>
      <trkpt lat="46.007266" lon="7.467225">
        <time>1970-01-01T00:00:00+00:00</time>
        <ele>2648.0</ele>
      </trkpt>
      <trkpt lat="46.006431" lon="7.467313">
        <time>1970-01-01T00:00:00+00:00</time>
        <ele>2668.0</ele>
      </trkpt>
      <trkpt lat="46.005822" lon="7.467545">
        <time>1970-01-01T00:00:00+00:00</time>
        <ele>2683.0</ele>
      </trkpt>
      <trkpt lat="46.004652" lon="7.467777">
        <time>1970-01-01T00:00:00+00:00</time>
        <ele>2718.0</ele>
      </trkpt>
      <trkpt lat="46.003988" lon="7.467827">
        <time>1970-01-01T00:00:00+00:00</time>
        <ele>2736.0</ele>
      </trkpt>
      <trkpt lat="46.003369" lon="7.467985">
        <time>1970-01-01T00:00:00+00:00</time>
        <ele>2746.0</ele>
      </trkpt>
      <trkpt lat="46.002105" lon="7.468534">
        <time>1970-01-01T00:00:00+00:00</time>
        <ele>2760.0</ele>
      </trkpt>
      <trkpt lat="46.000665" lon="7.469029">
        <time>1970-01-01T00:00:00+00:00</time>
        <ele>2775.0</ele>
      </trkpt>
      <trkpt lat="45.998185" lon="7.470336">
        <time>1970-01-01T00:00:00+00:00</time>
        <ele>2818.0</ele>
      </trkpt>
      <trkpt lat="45.997901" lon="7.470409">
        <time>1970-01-01T00:00:00+00:00</time>
        <ele>2825.0</ele>
      </trkpt>
      <trkpt lat="45.997712" lon="7.471092">
        <time>1970-01-01T00:00:00+00:00</time>
        <ele>2840.0</ele>
      </trkpt>
      <trkpt lat="45.997269" lon="7.471098">
        <time>1970-01-01T00:00:00+00:00</time>
        <ele>2856.0</ele>
      </trkpt>
      <trkpt lat="45.997109" lon="7.471628">
        <time>1970-01-01T00:00:00+00:00</time>
        <ele>2870.0</ele>
      </trkpt>
      <trkpt lat="45.996815" lon="7.471666">
        <time>1970-01-01T00:00:00+00:00</time>
        <ele>2880.0</ele>
      </trkpt>
      <trkpt lat="45.996709" lon="7.471892">
        <time>1970-01-01T00:00:00+00:00</time>
        <ele>2887.0</ele>
      </trkpt>
      <trkpt lat="45.996207" lon="7.472131">
        <time>1970-01-01T00:00:00+00:00</time>
        <ele>2901.0</ele>
      </trkpt>
      <trkpt lat="45.996106" lon="7.472259">
        <time>1970-01-01T00:00:00+00:00</time>
        <ele>2904.0</ele>
      </trkpt>
      <trkpt lat="45.995579" lon="7.47261">
        <time>1970-01-01T00:00:00+00:00</time>
        <ele>2915.0</ele>
      </trkpt>
      <trkpt lat="45.994632" lon="7.473168">
        <time>1970-01-01T00:00:00+00:00</time>
        <ele>2932.0</ele>
      </trkpt>
      <trkpt lat="45.994345" lon="7.473241">
        <time>1970-01-01T00:00:00+00:00</time>
        <ele>2939.0</ele>
      </trkpt>
      <trkpt lat="45.993622" lon="7.473731">
        <time>1970-01-01T00:00:00+00:00</time>
        <ele>2962.0</ele>
      </trkpt>
      <trkpt lat="45.993398" lon="7.474029">
        <time>1970-01-01T00:00:00+00:00</time>
        <ele>2970.0</ele>
      </trkpt>
      <trkpt lat="45.993088" lon="7.47537">
        <time>1970-01-01T00:00:00+00:00</time>
        <ele>3000.0</ele>
      </trkpt>
      <trkpt lat="45.992617" lon="7.475278">
        <time>1970-01-01T00:00:00+00:00</time>
        <ele>3016.0</ele>
      </trkpt>
      <trkpt lat="45.992547" lon="7.47565">
        <time>1970-01-01T00:00:00+00:00</time>
        <ele>3025.0</ele>
      </trkpt>
      <trkpt lat="45.991866" lon="7.47552">
        <time>1970-01-01T00:00:00+00:00</time>
        <ele>3050.0</ele>
      </trkpt>
      <trkpt lat="45.991658" lon="7.475422">
        <time>1970-01-01T00:00:00+00:00</time>
        <ele>3060.0</ele>
      </trkpt>
      <trkpt lat="45.991428" lon="7.4752">
        <time>1970-01-01T00:00:00+00:00</time>
        <ele>3070.0</ele>
      </trkpt>
      <trkpt lat="45.991341" lon="7.47565">
        <time>1970-01-01T00:00:00+00:00</time>
        <ele>3081.0</ele>
      </trkpt>
      <trkpt lat="45.990873" lon="7.475195">
        <time>1970-01-01T00:00:00+00:00</time>
        <ele>3100.0</ele>
      </trkpt>
      <trkpt lat="45.990239" lon="7.473766">
        <time>1970-01-01T00:00:00+00:00</time>
        <ele>3134.0</ele>
      </trkpt>
      <trkpt lat="45.989566" lon="7.472756">
        <time>1970-01-01T00:00:00+00:00</time>
        <ele>3162.0</ele>
      </trkpt>
      <trkpt lat="45.987657" lon="7.471286">
        <time>1970-01-01T00:00:00+00:00</time>
        <ele>3193.0</ele>
      </trkpt>
      <trkpt lat="45.986132" lon="7.470644">
        <time>1970-01-01T00:00:00+00:00</time>
        <ele>3222.0</ele>
      </trkpt>
      <trkpt lat="45.986019" lon="7.470417">
        <time>1970-01-01T00:00:00+00:00</time>
        <ele>3223.0</ele>
      </trkpt>
      <trkpt lat="45.986184" lon="7.470396">
        <time>1970-01-01T00:00:00+00:00</time>
        <ele>3230.0</ele>
      </trkpt>
      <trkpt lat="45.986101" lon="7.470244">
        <time>1970-01-01T00:00:00+00:00</time>
        <ele>3232.0</ele>
      </trkpt>
      <trkpt lat="45.986116" lon="7.470182">
        <time>1970-01-01T00:00:00+00:00</time>
        <ele>3234.0</ele>
      </trkpt>
      <trkpt lat="45.986345" lon="7.470129">
        <time>1970-01-01T00:00:00+00:00</time>
        <ele>3245.0</ele>
      </trkpt>
      <trkpt lat="45.986431" lon="7.470015">
        <time>1970-01-01T00:00:00+00:00</time>
        <ele>3251.0</ele>
      </trkpt>
      <trkpt lat="45.986455" lon="7.469225">
        <time>1970-01-01T00:00:00+00:00</time>
        <ele>3273.0</ele>
      </trkpt>
      <trkpt lat="45.987155" lon="7.469276">
        <time>1970-01-01T00:00:00+00:00</time>
        <ele>3295.0</ele>
      </trkpt>
      <trkpt lat="45.986888" lon="7.468172">
        <time>1970-01-01T00:00:00+00:00</time>
        <ele>3319.0</ele>
      </trkpt>
      <trkpt lat="45.987011" lon="7.468147">
        <time>1970-01-01T00:00:00+00:00</time>
        <ele>3326.0</ele>
      </trkpt>
      <trkpt lat="45.986655" lon="7.466894">
        <time>1970-01-01T00:00:00+00:00</time>
        <ele>3357.0</ele>
      </trkpt>
      <trkpt lat="45.987432" lon="7.46695">
        <time>1970-01-01T00:00:00+00:00</time>
        <ele>3379.0</ele>
      </trkpt>
      <trkpt lat="45.987375" lon="7.466658">
        <time>1970-01-01T00:00:00+00:00</time>
        <ele>3390.0</ele>
      </trkpt>
      <trkpt lat="45.987774" lon="7.466394">
        <time>1970-01-01T00:00:00+00:00</time>
        <ele>3399.0</ele>
      </trkpt>
      <trkpt lat="45.987818" lon="7.466153">
        <time>1970-01-01T00:00:00+00:00</time>
        <ele>3405.0</ele>
      </trkpt>
      <trkpt lat="45.987476" lon="7.46542">
        <time>1970-01-01T00:00:00+00:00</time>
        <ele>3427.0</ele>
      </trkpt>
      <trkpt lat="45.987072" lon="7.464904">
        <time>1970-01-01T00:00:00+00:00</time>
        <ele>3441.0</ele>
      </trkpt>
      <trkpt lat="45.987334" lon="7.464781">
        <time>1970-01-01T00:00:00+00:00</time>
        <ele>3448.0</ele>
      </trkpt>
      <trkpt lat="45.987233" lon="7.464546">
        <time>1970-01-01T00:00:00+00:00</time>
        <ele>3454.0</ele>
      </trkpt>
      <trkpt lat="45.987402" lon="7.464441">
        <time>1970-01-01T00:00:00+00:00</time>
        <ele>3458.0</ele>
      </trkpt>
      <trkpt lat="45.987236" lon="7.463786">
        <time>1970-01-01T00:00:00+00:00</time>
        <ele>3474.0</ele>
      </trkpt>
      <trkpt lat="45.98763" lon="7.463239">
        <time>1970-01-01T00:00:00+00:00</time>
        <ele>3493.0</ele>
      </trkpt>
      <trkpt lat="45.987583" lon="7.46292">
        <time>1970-01-01T00:00:00+00:00</time>
        <ele>3500.0</ele>
      </trkpt>
      <trkpt lat="45.987693" lon="7.462376">
        <time>1970-01-01T00:00:00+00:00</time>
        <ele>3511.0</ele>
      </trkpt>
      <trkpt lat="45.987653" lon="7.461694">
        <time>1970-01-01T00:00:00+00:00</time>
        <ele>3525.0</ele>
      </trkpt>
      <trkpt lat="45.987798" lon="7.460772">
        <time>1970-01-01T00:00:00+00:00</time>
        <ele>3542.0</ele>
      </trkpt>
      <trkpt lat="45.987848" lon="7.459409">
        <time>1970-01-01T00:00:00+00:00</time>
        <ele>3573.0</ele>
      </trkpt>
      <trkpt lat="45.987976" lon="7.458564">
        <time>1970-01-01T00:00:00+00:00</time>
        <ele>3598.0</ele>
      </trkpt>
      <trkpt lat="45.988033" lon="7.457778">
        <time>1970-01-01T00:00:00+00:00</time>
        <ele>3619.0</ele>
      </trkpt>
      <trkpt lat="45.9886" lon="7.457742">
        <time>1970-01-01T00:00:00+00:00</time>
        <ele>3637.0</ele>
      </trkpt>
      <trkpt lat="45.988652" lon="7.456825">
        <time>1970-01-01T00:00:00+00:00</time>
        <ele>3663.0</ele>
      </trkpt>
      <trkpt lat="45.989336" lon="7.456297">
        <time>1970-01-01T00:00:00+00:00</time>
        <ele>3684.0</ele>
      </trkpt>
      <trkpt lat="45.989571" lon="7.455477">
        <time>1970-01-01T00:00:00+00:00</time>
        <ele>3708.0</ele>
      </trkpt>
      <trkpt lat="45.989727" lon="7.45515">
        <time>1970-01-01T00:00:00+00:00</time>
        <ele>3720.0</ele>
      </trkpt>
      <trkpt lat="45.989745" lon="7.454971">
        <time>1970-01-01T00:00:00+00:00</time>
        <ele>3723.0</ele>
      </trkpt>
      <trkpt lat="45.991105" lon="7.454817">
        <time>1970-01-01T00:00:00+00:00</time>
        <ele>3764.0</ele>
      </trkpt>
      <trkpt lat="45.99" lon="7.454232">
        <time>1970-01-01T00:00:00+00:00</time>
        <ele>3727.0</ele>
      </trkpt>
      <trkpt lat="45.988821" lon="7.45297">
        <time>1970-01-01T00:00:00+00:00</time>
        <ele>3691.0</ele>
      </trkpt>
      <trkpt lat="45.988296" lon="7.452237">
        <time>1970-01-01T00:00:00+00:00</time>
        <ele>3674.0</ele>
      </trkpt>
      <trkpt lat="45.987886" lon="7.451368">
        <time>1970-01-01T00:00:00+00:00</time>
        <ele>3661.0</ele>
      </trkpt>
      <trkpt lat="45.987735" lon="7.450641">
        <time>1970-01-01T00:00:00+00:00</time>
        <ele>3657.0</ele>
      </trkpt>
      <trkpt lat="45.987522" lon="7.448998">
        <time>1970-01-01T00:00:00+00:00</time>
        <ele>3640.0</ele>
      </trkpt>
      <trkpt lat="45.987579" lon="7.44814">
        <time>1970-01-01T00:00:00+00:00</time>
        <ele>3631.0</ele>
      </trkpt>
      <trkpt lat="45.987955" lon="7.446299">
        <time>1970-01-01T00:00:00+00:00</time>
        <ele>3623.0</ele>
      </trkpt>
      <trkpt lat="45.988312" lon="7.445171">
        <time>1970-01-01T00:00:00+00:00</time>
        <ele>3623.0</ele>
      </trkpt>
      <trkpt lat="45.988485" lon="7.44482">
        <time>1970-01-01T00:00:00+00:00</time>
        <ele>3624.0</ele>
      </trkpt>
      <trkpt lat="45.988761" lon="7.444454">
        <time>1970-01-01T00:00:00+00:00</time>
        <ele>3626.0</ele>
      </trkpt>
      <trkpt lat="45.989274" lon="7.444194">
        <time>1970-01-01T00:00:00+00:00</time>
        <ele>3624.0</ele>
      </trkpt>
      <trkpt lat="45.989365" lon="7.444064">
        <time>1970-01-01T00:00:00+00:00</time>
        <ele>3623.0</ele>
      </trkpt>
      <trkpt lat="45.989845" lon="7.443719">
        <time>1970-01-01T00:00:00+00:00</time>
        <ele>3620.0</ele>
      </trkpt>
      <trkpt lat="45.990129" lon="7.443351">
        <time>1970-01-01T00:00:00+00:00</time>
        <ele>3616.0</ele>
      </trkpt>
      <trkpt lat="45.990285" lon="7.443329">
        <time>1970-01-01T00:00:00+00:00</time>
        <ele>3613.0</ele>
      </trkpt>
      <trkpt lat="45.990551" lon="7.442273">
        <time>1970-01-01T00:00:00+00:00</time>
        <ele>3603.0</ele>
      </trkpt>
      <trkpt lat="45.990553" lon="7.441691">
        <time>1970-01-01T00:00:00+00:00</time>
        <ele>3598.0</ele>
      </trkpt>
      <trkpt lat="45.990619" lon="7.441397">
        <time>1970-01-01T00:00:00+00:00</time>
        <ele>3584.0</ele>
      </trkpt>
      <trkpt lat="45.991104" lon="7.441681">
        <time>1970-01-01T00:00:00+00:00</time>
        <ele>3563.0</ele>
      </trkpt>
      <trkpt lat="45.991185" lon="7.441605">
        <time>1970-01-01T00:00:00+00:00</time>
        <ele>3556.0</ele>
      </trkpt>
      <trkpt lat="45.991839" lon="7.441845">
        <time>1970-01-01T00:00:00+00:00</time>
        <ele>3518.0</ele>
      </trkpt>
      <trkpt lat="45.991994" lon="7.441737">
        <time>1970-01-01T00:00:00+00:00</time>
        <ele>3506.0</ele>
      </trkpt>
      <trkpt lat="45.991666" lon="7.440758">
        <time>1970-01-01T00:00:00+00:00</time>
        <ele>3501.0</ele>
      </trkpt>
      <trkpt lat="45.991427" lon="7.439604">
        <time>1970-01-01T00:00:00+00:00</time>
        <ele>3493.0</ele>
      </trkpt>
      <trkpt lat="45.991452" lon="7.439343">
        <time>1970-01-01T00:00:00+00:00</time>
        <ele>3491.0</ele>
      </trkpt>
      <trkpt lat="45.992087" lon="7.438145">
        <time>1970-01-01T00:00:00+00:00</time>
        <ele>3481.0</ele>
      </trkpt>
      <trkpt lat="45.992256" lon="7.437944">
        <time>1970-01-01T00:00:00+00:00</time>
        <ele>3482.0</ele>
      </trkpt>
      <trkpt lat="45.992729" lon="7.437699">
        <time>1970-01-01T00:00:00+00:00</time>
        <ele>3481.0</ele>
      </trkpt>
      <trkpt lat="45.993407" lon="7.437746">
        <time>1970-01-01T00:00:00+00:00</time>
        <ele>3475.0</ele>
      </trkpt>
      <trkpt lat="45.993792" lon="7.437823">
        <time>1970-01-01T00:00:00+00:00</time>
        <ele>3470.0</ele>
      </trkpt>
      <trkpt lat="45.994191" lon="7.438001">
        <time>1970-01-01T00:00:00+00:00</time>
        <ele>3465.0</ele>
      </trkpt>
      <trkpt lat="45.994616" lon="7.438048">
        <time>1970-01-01T00:00:00+00:00</time>
        <ele>3463.0</ele>
      </trkpt>
      <trkpt lat="45.995049" lon="7.438233">
        <time>1970-01-01T00:00:00+00:00</time>
        <ele>3459.0</ele>
      </trkpt>
      <trkpt lat="45.995471" lon="7.438541">
        <time>1970-01-01T00:00:00+00:00</time>
        <ele>3454.0</ele>
      </trkpt>
      <trkpt lat="45.996226" lon="7.439357">
        <time>1970-01-01T00:00:00+00:00</time>
        <ele>3439.0</ele>
      </trkpt>
      <trkpt lat="45.996539" lon="7.439428">
        <time>1970-01-01T00:00:00+00:00</time>
        <ele>3431.0</ele>
      </trkpt>
      <trkpt lat="45.99691" lon="7.439305">
        <time>1970-01-01T00:00:00+00:00</time>
        <ele>3422.0</ele>
      </trkpt>
      <trkpt lat="45.997864" lon="7.439257">
        <time>1970-01-01T00:00:00+00:00</time>
        <ele>3394.0</ele>
      </trkpt>
      <trkpt lat="45.998903" lon="7.438885">
        <time>1970-01-01T00:00:00+00:00</time>
        <ele>3364.0</ele>
      </trkpt>
      <trkpt lat="45.999364" lon="7.438877">
        <time>1970-01-01T00:00:00+00:00</time>
        <ele>3352.0</ele>
      </trkpt>
      <trkpt lat="46.000028" lon="7.439197">
        <time>1970-01-01T00:00:00+00:00</time>
        <ele>3339.0</ele>
      </trkpt>
      <trkpt lat="46.000413" lon="7.439182">
        <time>1970-01-01T00:00:00+00:00</time>
        <ele>3326.0</ele>
      </trkpt>
      <trkpt lat="46.000717" lon="7.439059">
        <time>1970-01-01T00:00:00+00:00</time>
        <ele>3314.0</ele>
      </trkpt>
      <trkpt lat="46.00089" lon="7.438719">
        <time>1970-01-01T00:00:00+00:00</time>
        <ele>3299.0</ele>
      </trkpt>
      <trkpt lat="46.001129" lon="7.438563">
        <time>1970-01-01T00:00:00+00:00</time>
        <ele>3284.0</ele>
      </trkpt>
      <trkpt lat="46.001494" lon="7.438495">
        <time>1970-01-01T00:00:00+00:00</time>
        <ele>3268.0</ele>
      </trkpt>
      <trkpt lat="46.00173" lon="7.438215">
        <time>1970-01-01T00:00:00+00:00</time>
        <ele>3246.0</ele>
      </trkpt>
      <trkpt lat="46.00207" lon="7.437943">
        <time>1970-01-01T00:00:00+00:00</time>
        <ele>3223.0</ele>
      </trkpt>
      <trkpt lat="46.002079" lon="7.437414">
        <time>1970-01-01T00:00:00+00:00</time>
        <ele>3210.0</ele>
      </trkpt>
      <trkpt lat="46.002152" lon="7.437299">
        <time>1970-01-01T00:00:00+00:00</time>
        <ele>3203.0</ele>
      </trkpt>
      <trkpt lat="46.00306" lon="7.436606">
        <time>1970-01-01T00:00:00+00:00</time>
        <ele>3148.0</ele>
      </trkpt>
      <trkpt lat="46.004107" lon="7.434323">
        <time>1970-01-01T00:00:00+00:00</time>
        <ele>3068.0</ele>
      </trkpt>
      <trkpt lat="46.004342" lon="7.433201">
        <time>1970-01-01T00:00:00+00:00</time>
        <ele>3039.0</ele>
      </trkpt>
      <trkpt lat="46.004334" lon="7.43244">
        <time>1970-01-01T00:00:00+00:00</time>
        <ele>3026.0</ele>
      </trkpt>
      <trkpt lat="46.004434" lon="7.432304">
        <time>1970-01-01T00:00:00+00:00</time>
        <ele>3028.0</ele>
      </trkpt>
      <trkpt lat="46.004379" lon="7.432066">
        <time>1970-01-01T00:00:00+00:00</time>
        <ele>3022.0</ele>
      </trkpt>
      <trkpt lat="46.004527" lon="7.431432">
        <time>1970-01-01T00:00:00+00:00</time>
        <ele>3019.0</ele>
      </trkpt>
      <trkpt lat="46.004398" lon="7.431034">
        <time>1970-01-01T00:00:00+00:00</time>
        <ele>3005.0</ele>
      </trkpt>
      <trkpt lat="46.004096" lon="7.430415">
        <time>1970-01-01T00:00:00+00:00</time>
        <ele>2984.0</ele>
      </trkpt>
      <trkpt lat="46.003948" lon="7.429694">
        <time>1970-01-01T00:00:00+00:00</time>
        <ele>2959.0</ele>
      </trkpt>
      <trkpt lat="46.004067" lon="7.42945">
        <time>1970-01-01T00:00:00+00:00</time>
        <ele>2947.0</ele>
      </trkpt>
      <trkpt lat="46.005146" lon="7.429027">
        <time>1970-01-01T00:00:00+00:00</time>
        <ele>2927.0</ele>
      </trkpt>
      <trkpt lat="46.005657" lon="7.428681">
        <time>1970-01-01T00:00:00+00:00</time>
        <ele>2916.0</ele>
      </trkpt>
      <trkpt lat="46.006371" lon="7.427951">
        <time>1970-01-01T00:00:00+00:00</time>
        <ele>2905.0</ele>
      </trkpt>
      <trkpt lat="46.006307" lon="7.427656">
        <time>1970-01-01T00:00:00+00:00</time>
        <ele>2893.0</ele>
      </trkpt>
      <trkpt lat="46.006029" lon="7.426973">
        <time>1970-01-01T00:00:00+00:00</time>
        <ele>2870.0</ele>
      </trkpt>
      <trkpt lat="46.005796" lon="7.426123">
        <time>1970-01-01T00:00:00+00:00</time>
        <ele>2853.0</ele>
      </trkpt>
      <trkpt lat="46.006202" lon="7.425496">
        <time>1970-01-01T00:00:00+00:00</time>
        <ele>2848.0</ele>
      </trkpt>
      <trkpt lat="46.006603" lon="7.42532">
        <time>1970-01-01T00:00:00+00:00</time>
        <ele>2845.0</ele>
      </trkpt>
      <trkpt lat="46.007222" lon="7.425284">
        <time>1970-01-01T00:00:00+00:00</time>
        <ele>2839.0</ele>
      </trkpt>
      <trkpt lat="46.008691" lon="7.425672">
        <time>1970-01-01T00:00:00+00:00</time>
        <ele>2817.0</ele>
      </trkpt>
      <trkpt lat="46.009696" lon="7.42611">
        <time>1970-01-01T00:00:00+00:00</time>
        <ele>2801.0</ele>
      </trkpt>
      <trkpt lat="46.010445" lon="7.426588">
        <time>1970-01-01T00:00:00+00:00</time>
        <ele>2793.0</ele>
      </trkpt>
      <trkpt lat="46.011545" lon="7.427526">
        <time>1970-01-01T00:00:00+00:00</time>
        <ele>2779.0</ele>
      </trkpt>
      <trkpt lat="46.012001" lon="7.427834">
        <time>1970-01-01T00:00:00+00:00</time>
        <ele>2773.0</ele>
      </trkpt>
      <trkpt lat="46.012485" lon="7.428112">
        <time>1970-01-01T00:00:00+00:00</time>
        <ele>2769.0</ele>
      </trkpt>
      <trkpt lat="46.013789" lon="7.42864">
        <time>1970-01-01T00:00:00+00:00</time>
        <ele>2761.0</ele>
      </trkpt>
      <trkpt lat="46.014398" lon="7.429356">
        <time>1970-01-01T00:00:00+00:00</time>
        <ele>2772.0</ele>
      </trkpt>
      <trkpt lat="46.01505" lon="7.429997">
        <time>1970-01-01T00:00:00+00:00</time>
        <ele>2783.0</ele>
      </trkpt>
      <trkpt lat="46.015875" lon="7.430557">
        <time>1970-01-01T00:00:00+00:00</time>
        <ele>2780.0</ele>
      </trkpt>
      <trkpt lat="46.016197" lon="7.431297">
        <time>1970-01-01T00:00:00+00:00</time>
        <ele>2809.0</ele>
      </trkpt>
      <trkpt lat="46.015607" lon="7.432797">
        <time>1970-01-01T00:00:00+00:00</time>
        <ele>2843.0</ele>
      </trkpt>
      <trkpt lat="46.015495" lon="7.432965">
        <time>1970-01-01T00:00:00+00:00</time>
        <ele>2843.0</ele>
      </trkpt>
      <trkpt lat="46.015527" lon="7.433872">
        <time>1970-01-01T00:00:00+00:00</time>
        <ele>2793.0</ele>
      </trkpt>
      <trkpt lat="46.015778" lon="7.434702">
        <time>1970-01-01T00:00:00+00:00</time>
        <ele>2759.0</ele>
      </trkpt>
      <trkpt lat="46.015529" lon="7.435247">
        <time>1970-01-01T00:00:00+00:00</time>
        <ele>2746.0</ele>
      </trkpt>
      <trkpt lat="46.015422" lon="7.435812">
        <time>1970-01-01T00:00:00+00:00</time>
        <ele>2736.0</ele>
      </trkpt>
      <trkpt lat="46.015465" lon="7.43648">
        <time>1970-01-01T00:00:00+00:00</time>
        <ele>2727.0</ele>
      </trkpt>
      <trkpt lat="46.015268" lon="7.437314">
        <time>1970-01-01T00:00:00+00:00</time>
        <ele>2711.0</ele>
      </trkpt>
      <trkpt lat="46.014682" lon="7.437949">
        <time>1970-01-01T00:00:00+00:00</time>
        <ele>2692.0</ele>
      </trkpt>
      <trkpt lat="46.014203" lon="7.438146">
        <time>1970-01-01T00:00:00+00:00</time>
        <ele>2686.0</ele>
      </trkpt>
      <trkpt lat="46.013841" lon="7.438387">
        <time>1970-01-01T00:00:00+00:00</time>
        <ele>2686.0</ele>
      </trkpt>
      <trkpt lat="46.013646" lon="7.438636">
        <time>1970-01-01T00:00:00+00:00</time>
        <ele>2688.0</ele>
      </trkpt>
      <trkpt lat="46.013578" lon="7.438898">
        <time>1970-01-01T00:00:00+00:00</time>
        <ele>2685.0</ele>
      </trkpt>
      <trkpt lat="46.014824" lon="7.442028">
        <time>1970-01-01T00:00:00+00:00</time>
        <ele>2609.0</ele>
      </trkpt>
      <trkpt lat="46.015737" lon="7.445646">
        <time>1970-01-01T00:00:00+00:00</time>
        <ele>2570.0</ele>
      </trkpt>
      <trkpt lat="46.016184" lon="7.448752">
        <time>1970-01-01T00:00:00+00:00</time>
        <ele>2539.0</ele>
      </trkpt>
      <trkpt lat="46.016308" lon="7.449265">
        <time>1970-01-01T00:00:00+00:00</time>
        <ele>2535.0</ele>
      </trkpt>
      <trkpt lat="46.016267" lon="7.449771">
        <time>1970-01-01T00:00:00+00:00</time>
        <ele>2533.0</ele>
      </trkpt>
      <trkpt lat="46.016212" lon="7.449831">
        <time>1970-01-01T00:00:00+00:00</time>
        <ele>2533.0</ele>
      </trkpt>
      <trkpt lat="46.016277" lon="7.449938">
        <time>1970-01-01T00:00:00+00:00</time>
        <ele>2532.0</ele>
      </trkpt>
      <trkpt lat="46.016278" lon="7.450104">
        <time>1970-01-01T00:00:00+00:00</time>
        <ele>2531.0</ele>
      </trkpt>
      <trkpt lat="46.016393" lon="7.450468">
        <time>1970-01-01T00:00:00+00:00</time>
        <ele>2527.0</ele>
      </trkpt>
      <trkpt lat="46.01689" lon="7.45149">
        <time>1970-01-01T00:00:00+00:00</time>
        <ele>2513.0</ele>
      </trkpt>
      <trkpt lat="46.016867" lon="7.451855">
        <time>1970-01-01T00:00:00+00:00</time>
        <ele>2510.0</ele>
      </trkpt>
      <trkpt lat="46.016929" lon="7.452273">
        <time>1970-01-01T00:00:00+00:00</time>
        <ele>2503.0</ele>
      </trkpt>
      <trkpt lat="46.017248" lon="7.45337">
        <time>1970-01-01T00:00:00+00:00</time>
        <ele>2487.0</ele>
      </trkpt>
      <trkpt lat="46.017365" lon="7.454078">
        <time>1970-01-01T00:00:00+00:00</time>
        <ele>2477.0</ele>
      </trkpt>
      <trkpt lat="46.017201" lon="7.455111">
        <time>1970-01-01T00:00:00+00:00</time>
        <ele>2464.0</ele>
      </trkpt>
      <trkpt lat="46.016914" lon="7.455436">
        <time>1970-01-01T00:00:00+00:00</time>
        <ele>2459.0</ele>
      </trkpt>
      <trkpt lat="46.016915" lon="7.455865">
        <time>1970-01-01T00:00:00+00:00</time>
        <ele>2454.0</ele>
      </trkpt>
      <trkpt lat="46.017035" lon="7.456139">
        <time>1970-01-01T00:00:00+00:00</time>
        <ele>2456.0</ele>
      </trkpt>
      <trkpt lat="46.017059" lon="7.456374">
        <time>1970-01-01T00:00:00+00:00</time>
        <ele>2456.0</ele>
      </trkpt>
      <trkpt lat="46.017205" lon="7.456541">
        <time>1970-01-01T00:00:00+00:00</time>
        <ele>2459.0</ele>
      </trkpt>
      <trkpt lat="46.017429" lon="7.457205">
        <time>1970-01-01T00:00:00+00:00</time>
        <ele>2456.0</ele>
      </trkpt>
      <trkpt lat="46.017853" lon="7.459466">
        <time>1970-01-01T00:00:00+00:00</time>
        <ele>2426.0</ele>
      </trkpt>
      <trkpt lat="46.018446" lon="7.461505">
        <time>1970-01-01T00:00:00+00:00</time>
        <ele>2416.0</ele>
      </trkpt>
      <trkpt lat="46.019061" lon="7.462807">
        <time>1970-01-01T00:00:00+00:00</time>
        <ele>2411.0</ele>
      </trkpt>
      <trkpt lat="46.020367" lon="7.46622">
        <time>1970-01-01T00:00:00+00:00</time>
        <ele>2380.0</ele>
      </trkpt>
      <trkpt lat="46.020818" lon="7.466845">
        <time>1970-01-01T00:00:00+00:00</time>
        <ele>2372.0</ele>
      </trkpt>
      <trkpt lat="46.020777" lon="7.46843">
        <time>1970-01-01T00:00:00+00:00</time>
        <ele>2307.0</ele>
      </trkpt>
      <trkpt lat="46.020514" lon="7.469829">
        <time>1970-01-01T00:00:00+00:00</time>
        <ele>2243.0</ele>
      </trkpt>
      <trkpt lat="46.020415" lon="7.469904">
        <time>1970-01-01T00:00:00+00:00</time>
        <ele>2241.0</ele>
      </trkpt>
      <trkpt lat="46.020395" lon="7.470011">
        <time>1970-01-01T00:00:00+00:00</time>
        <ele>2236.0</ele>
      </trkpt>
      <trkpt lat="46.020391" lon="7.470185">
        <time>1970-01-01T00:00:00+00:00</time>
        <ele>2227.0</ele>
      </trkpt>
      <trkpt lat="46.020528" lon="7.470724">
        <time>1970-01-01T00:00:00+00:00</time>
        <ele>2204.0</ele>
      </trkpt>
      <trkpt lat="46.020446" lon="7.471338">
        <time>1970-01-01T00:00:00+00:00</time>
        <ele>2188.0</ele>
      </trkpt>
      <trkpt lat="46.020455" lon="7.472148">
        <time>1970-01-01T00:00:00+00:00</time>
        <ele>2175.0</ele>
      </trkpt>
      <trkpt lat="46.020538" lon="7.473092">
        <time>1970-01-01T00:00:00+00:00</time>
        <ele>2162.0</ele>
      </trkpt>
      <trkpt lat="46.019978" lon="7.475075">
        <time>1970-01-01T00:00:00+00:00</time>
        <ele>2132.0</ele>
      </trkpt>
      <trkpt lat="46.020081" lon="7.475331">
        <time>1970-01-01T00:00:00+00:00</time>
        <ele>2127.0</ele>
      </trkpt>
      <trkpt lat="46.020316" lon="7.477687">
        <time>1970-01-01T00:00:00+00:00</time>
        <ele>2074.0</ele>
      </trkpt>
      <trkpt lat="46.02078" lon="7.480058">
        <time>1970-01-01T00:00:00+00:00</time>
        <ele>2004.0</ele>
      </trkpt>
      <trkpt lat="46.020926" lon="7.481106">
        <time>1970-01-01T00:00:00+00:00</time>
        <ele>1987.0</ele>
      </trkpt>
      <trkpt lat="46.021014" lon="7.481432">
        <time>1970-01-01T00:00:00+00:00</time>
        <ele>1982.0</ele>
      </trkpt>
      <trkpt lat="46.021353" lon="7.481661">
        <time>1970-01-01T00:00:00+00:00</time>
        <ele>1975.0</ele>
      </trkpt>
      <trkpt lat="46.021127" lon="7.481759">
        <time>1970-01-01T00:00:00+00:00</time>
        <ele>1975.0</ele>
      </trkpt>
    </trkseg>
  </trk>
</gpx>
